| time (UTC) | temp F | wind direction | speed MPH | gust MPH | rain 1hr in | rain 24hr in | rain mn in | humidity % | barometer mb |
| 20260506172556 | 60 | 0 | 2.0 | 10.0 | 0.03 | 0.17 | 0.17 | 88 | 1007.6 |
| 20260506172056 | 60 | 259 | 1.0 | 10.0 | 0.03 | 0.17 | 0.17 | 88 | 1007.6 |
| 20260506171600 | 60 | 203 | 3.0 | 14.0 | 0.04 | 0.17 | 0.17 | 88 | 1007.7 |
| 20260506171057 | 60 | 195 | 3.0 | 14.0 | 0.05 | 0.17 | 0.17 | 88 | 1007.7 |
| 20260506170556 | 60 | 0 | 1.0 | 16.0 | 0.06 | 0.17 | 0.17 | 88 | 1007.7 |
| 20260506165556 | 60 | 181 | 3.0 | 12.0 | 0.08 | 0.17 | 0.17 | 88 | 1007.8 |
| 20260506165056 | 60 | 0 | 2.0 | 11.0 | 0.08 | 0.16 | 0.16 | 88 | 1007.6 |
| 20260506164612 | 60 | 240 | 1.0 | 11.0 | 0.09 | 0.16 | 0.16 | 88 | 1007.5 |
| 20260506164056 | 60 | 0 | 0.0 | 9.0 | 0.08 | 0.15 | 0.15 | 88 | 1007.6 |
| 20260506163556 | 60 | 117 | 1.0 | 9.0 | 0.09 | 0.15 | 0.15 | 87 | 1007.6 |
| 20260506163102 | 60 | 182 | 2.0 | 7.0 | 0.08 | 0.14 | 0.14 | 88 | 1007.6 |
| 20260506162556 | 61 | 155 | 1.0 | 20.0 | 0.09 | 0.14 | 0.14 | 88 | 1007.9 |
| 20260506162056 | 60 | 0 | 1.0 | 22.0 | 0.09 | 0.14 | 0.14 | 88 | 1008.0 |
| 20260506161559 | 60 | 132 | 4.0 | 22.0 | 0.08 | 0.13 | 0.13 | 87 | 1008.2 |
| 20260506161056 | 60 | 0 | 2.0 | 8.0 | 0.08 | 0.12 | 0.12 | 87 | 1008.5 |
| 20260506160556 | 60 | 257 | 0.0 | 6.0 | 0.08 | 0.11 | 0.11 | 87 | 1008.7 |
| 20260506160107 | 60 | 192 | 1.0 | 6.0 | 0.07 | 0.10 | 0.10 | 87 | 1008.8 |
| 20260506155556 | 60 | 0 | 1.0 | 5.0 | 0.06 | 0.09 | 0.09 | 86 | 1008.8 |
| 20260506155056 | 61 | 0 | 0.0 | 8.0 | 0.06 | 0.08 | 0.08 | 86 | 1008.9 |
| 20260506154557 | 61 | 0 | 1.0 | 8.0 | 0.06 | 0.07 | 0.07 | 85 | 1009.1 |
| 20260506154056 | 61 | 0 | 2.0 | 10.0 | 0.07 | 0.07 | 0.07 | 85 | 1009.2 |
| 20260506153556 | 61 | 213 | 0.0 | 10.0 | 0.06 | 0.06 | 0.06 | 84 | 1009.2 |
| 20260506153101 | 61 | 136 | 2.0 | 10.0 | 0.06 | 0.06 | 0.06 | 84 | 1009.1 |
| 20260506152555 | 62 | 156 | 3.0 | 10.0 | 0.05 | 0.05 | 0.05 | 84 | 1009.0 |
| 20260506152056 | 62 | 0 | 1.0 | 7.0 | 0.05 | 0.05 | 0.05 | 84 | 1008.9 |
| 20260506151558 | 62 | 0 | 1.0 | 7.0 | 0.05 | 0.05 | 0.05 | 83 | 1008.9 |
| 20260506151056 | 62 | 0 | 0.0 | 7.0 | 0.04 | 0.04 | 0.04 | 83 | 1008.7 |
| 20260506150556 | 62 | 0 | 0.0 | 7.0 | 0.03 | 0.03 | 0.03 | 82 | 1008.8 |
| 20260506150055 | 62 | 0 | 0.0 | 10.0 | 0.03 | 0.03 | 0.03 | 81 | 1008.9 |
| 20260506145558 | 63 | 0 | 2.0 | 10.0 | 0.03 | 0.03 | 0.03 | 80 | 1008.9 |
| 20260506145056 | 63 | 0 | 0.0 | 12.0 | 0.02 | 0.02 | 0.02 | 79 | 1009.0 |
| 20260506144556 | 64 | 192 | 1.0 | 12.0 | 0.01 | 0.01 | 0.01 | 76 | 1009.1 |
| 20260506144056 | 64 | 0 | 2.0 | 5.0 | 0.00 | 0.00 | 0.00 | 73 | 1009.1 |
| 20260506143556 | 65 | 197 | 0.0 | 9.0 | 0.00 | 0.00 | 0.00 | 73 | 1009.1 |
| 20260506143058 | 65 | 0 | 3.0 | 10.0 | 0.00 | 0.00 | 0.00 | 71 | 1008.9 |
| 20260506142556 | 65 | 0 | 2.0 | 10.0 | 0.00 | 0.00 | 0.00 | 72 | 1008.9 |
| 20260506142055 | 65 | 0 | 1.0 | 8.0 | 0.00 | 0.00 | 0.00 | 72 | 1008.9 |
| 20260506141611 | 65 | 0 | 1.0 | 10.0 | 0.00 | 0.00 | 0.00 | 72 | 1009.0 |
| 20260506141057 | 65 | 245 | 1.0 | 10.0 | 0.00 | 0.00 | 0.00 | 72 | 1008.9 |
| 20260506140558 | 65 | 219 | 2.0 | 10.0 | 0.00 | 0.00 | 0.00 | 72 | 1008.7 |
| 20260506140057 | 64 | 231 | 2.0 | 7.0 | 0.00 | 0.00 | 0.00 | 73 | 1008.6 |
| 20260506135556 | 64 | 0 | 1.0 | 9.0 | 0.00 | 0.00 | 0.00 | 72 | 1008.6 |
| 20260506135056 | 64 | 120 | 1.0 | 9.0 | 0.00 | 0.00 | 0.00 | 72 | 1008.7 |
| 20260506134557 | 64 | 119 | 4.0 | 9.0 | 0.00 | 0.00 | 0.00 | 71 | 1008.8 |
| 20260506134056 | 64 | 203 | 1.0 | 10.0 | 0.00 | 0.00 | 0.00 | 72 | 1008.8 |
| 20260506133559 | 65 | 180 | 2.0 | 10.0 | 0.00 | 0.00 | 0.00 | 71 | 1008.8 |
| 20260506133105 | 64 | 215 | 1.0 | 10.0 | 0.00 | 0.00 | 0.00 | 72 | 1009.0 |
| 20260506132556 | 64 | 0 | 1.0 | 14.0 | 0.00 | 0.00 | 0.00 | 72 | 1009.0 |
| 20260506132056 | 65 | 180 | 3.0 | 14.0 | 0.00 | 0.00 | 0.00 | 71 | 1009.2 |
| 20260506131556 | 65 | 186 | 2.0 | 14.0 | 0.00 | 0.00 | 0.00 | 70 | 1009.1 |
| 20260506131057 | 65 | 187 | 3.0 | 14.0 | 0.00 | 0.00 | 0.00 | 70 | 1009.2 |
| 20260506130556 | 65 | 0 | 3.0 | 16.0 | 0.00 | 0.00 | 0.00 | 70 | 1009.2 |
| 20260506130057 | 65 | 130 | 1.0 | 16.0 | 0.00 | 0.00 | 0.00 | 70 | 1009.0 |
| 20260506125556 | 65 | 0 | 2.0 | 15.0 | 0.00 | 0.00 | 0.00 | 70 | 1009.1 |
| 20260506125056 | 64 | 0 | 5.0 | 14.0 | 0.00 | 0.00 | 0.00 | 72 | 1009.1 |
| 20260506124555 | 64 | 0 | 1.0 | 12.0 | 0.00 | 0.00 | 0.00 | 72 | 1009.1 |
| 20260506124056 | 64 | 185 | 2.0 | 13.0 | 0.00 | 0.00 | 0.00 | 72 | 1009.0 |
| 20260506123556 | 64 | 179 | 2.0 | 13.0 | 0.00 | 0.00 | 0.00 | 72 | 1008.6 |
| 20260506123056 | 64 | 163 | 3.0 | 10.0 | 0.00 | 0.00 | 0.00 | 71 | 1008.8 |
| 20260506122556 | 64 | 0 | 3.0 | 10.0 | 0.00 | 0.00 | 0.00 | 72 | 1008.8 |
| 20260506122057 | 64 | 172 | 2.0 | 10.0 | 0.00 | 0.00 | 0.00 | 72 | 1008.9 |
| 20260506121610 | 64 | 0 | 3.0 | 10.0 | 0.00 | 0.00 | 0.00 | 72 | 1008.9 |
| 20260506121056 | 64 | 188 | 3.0 | 14.0 | 0.00 | 0.00 | 0.00 | 73 | 1009.0 |
| 20260506120556 | 64 | 0 | 3.0 | 14.0 | 0.00 | 0.00 | 0.00 | 72 | 1009.1 |
| 20260506120118 | 63 | 0 | 2.0 | 12.0 | 0.00 | 0.00 | 0.00 | 73 | 1009.1 |
| 20260506115556 | 63 | 0 | 1.0 | 12.0 | 0.00 | 0.00 | 0.00 | 73 | 1008.9 |
| 20260506115056 | 63 | 270 | 4.0 | 12.0 | 0.00 | 0.00 | 0.00 | 73 | 1009.0 |
| 20260506114555 | 63 | 166 | 2.0 | 9.0 | 0.00 | 0.00 | 0.00 | 73 | 1009.0 |
| 20260506114055 | 63 | 0 | 2.0 | 13.0 | 0.00 | 0.00 | 0.00 | 73 | 1009.1 |
| 20260506113556 | 63 | 221 | 2.0 | 13.0 | 0.00 | 0.00 | 0.00 | 73 | 1009.2 |
| 20260506113103 | 63 | 230 | 0.0 | 11.0 | 0.00 | 0.00 | 0.00 | 74 | 1009.2 |
| 20260506112557 | 63 | 0 | 1.0 | 14.0 | 0.00 | 0.00 | 0.00 | 73 | 1009.1 |
| 20260506112056 | 63 | 268 | 2.0 | 14.0 | 0.00 | 0.00 | 0.00 | 73 | 1009.0 |
| 20260506111555 | 63 | 188 | 5.0 | 14.0 | 0.00 | 0.00 | 0.00 | 73 | 1009.0 |
| 20260506111056 | 63 | 206 | 1.0 | 10.0 | 0.00 | 0.00 | 0.00 | 74 | 1008.9 |
| 20260506110558 | 63 | 263 | 1.0 | 14.0 | 0.00 | 0.00 | 0.00 | 74 | 1008.9 |
| 20260506110101 | 63 | 213 | 4.0 | 15.0 | 0.00 | 0.00 | 0.00 | 74 | 1008.9 |
| 20260506105556 | 63 | 172 | 2.0 | 15.0 | 0.00 | 0.00 | 0.00 | 75 | 1008.9 |
| 20260506105056 | 63 | 177 | 1.0 | 6.0 | 0.00 | 0.00 | 0.00 | 74 | 1008.7 |
| 20260506104556 | 63 | 0 | 0.0 | 11.0 | 0.00 | 0.00 | 0.00 | 74 | 1008.7 |
| 20260506104055 | 63 | 0 | 3.0 | 12.0 | 0.00 | 0.00 | 0.00 | 74 | 1008.9 |
| 20260506103556 | 63 | 0 | 3.0 | 12.0 | 0.00 | 0.00 | 0.00 | 74 | 1008.6 |
| 20260506103057 | 63 | 221 | 0.0 | 7.0 | 0.00 | 0.00 | 0.00 | 75 | 1008.5 |
| 20260506102557 | 63 | 183 | 1.0 | 11.0 | 0.00 | 0.00 | 0.00 | 75 | 1008.6 |
| 20260506102057 | 63 | 0 | 2.0 | 11.0 | 0.00 | 0.00 | 0.00 | 75 | 1008.6 |
| 20260506101558 | 62 | 165 | 1.0 | 9.0 | 0.00 | 0.00 | 0.00 | 75 | 1008.6 |
| 20260506101056 | 62 | 0 | 1.0 | 9.0 | 0.00 | 0.00 | 0.00 | 75 | 1008.7 |
| 20260506100558 | 62 | 214 | 0.0 | 4.0 | 0.00 | 0.00 | 0.00 | 75 | 1008.7 |
| 20260506100057 | 63 | 0 | 1.0 | 6.0 | 0.00 | 0.00 | 0.00 | 75 | 1008.6 |
| 20260506095556 | 63 | 219 | 0.0 | 7.0 | 0.00 | 0.00 | 0.00 | 74 | 1008.5 |
| 20260506095055 | 63 | 0 | 1.0 | 7.0 | 0.00 | 0.00 | 0.00 | 74 | 1008.6 |
| 20260506094557 | 63 | 152 | 1.0 | 6.0 | 0.00 | 0.00 | 0.00 | 74 | 1008.5 |
| 20260506094057 | 63 | 0 | 0.0 | 14.0 | 0.00 | 0.00 | 0.00 | 74 | 1008.6 |
| 20260506093556 | 63 | 0 | 3.0 | 14.0 | 0.00 | 0.00 | 0.00 | 74 | 1008.3 |
| 20260506093057 | 63 | 0 | 1.0 | 8.0 | 0.00 | 0.00 | 0.00 | 74 | 1008.4 |
| 20260506092556 | 63 | 0 | 3.0 | 10.0 | 0.00 | 0.00 | 0.00 | 74 | 1008.2 |
| 20260506092056 | 63 | 0 | 0.0 | 11.0 | 0.00 | 0.00 | 0.00 | 74 | 1008.3 |
| 20260506091558 | 63 | 0 | 3.0 | 11.0 | 0.00 | 0.00 | 0.00 | 74 | 1008.3 |
| 20260506091056 | 63 | 212 | 2.0 | 8.0 | 0.00 | 0.00 | 0.00 | 74 | 1008.5 |
| 20260506090556 | 63 | 0 | 1.0 | 7.0 | 0.00 | 0.00 | 0.00 | 74 | 1008.5 |
| 20260506090059 | 63 | 237 | 1.0 | 8.0 | 0.00 | 0.00 | 0.00 | 74 | 1008.6 |
| 20260506085556 | 63 | 0 | 1.0 | 8.0 | 0.00 | 0.00 | 0.00 | 75 | 1008.7 |
| 20260506085056 | 62 | 0 | 1.0 | 7.0 | 0.00 | 0.00 | 0.00 | 75 | 1008.8 |
| 20260506084556 | 62 | 0 | 1.0 | 8.0 | 0.00 | 0.00 | 0.00 | 75 | 1008.9 |
| 20260506084056 | 62 | 0 | 1.0 | 8.0 | 0.00 | 0.00 | 0.00 | 75 | 1008.8 |
| 20260506083556 | 62 | 0 | 0.0 | 7.0 | 0.00 | 0.00 | 0.00 | 74 | 1008.9 |
| 20260506083057 | 62 | 0 | 1.0 | 7.0 | 0.00 | 0.00 | 0.00 | 74 | 1008.9 |
| 20260506082556 | 62 | 0 | 0.0 | 8.0 | 0.00 | 0.00 | 0.00 | 74 | 1008.8 |
| 20260506082056 | 63 | 0 | 1.0 | 8.0 | 0.00 | 0.00 | 0.00 | 74 | 1008.7 |
| 20260506081556 | 62 | 0 | 1.0 | 8.0 | 0.00 | 0.00 | 0.00 | 74 | 1008.7 |
| 20260506081056 | 62 | 0 | 1.0 | 5.0 | 0.00 | 0.00 | 0.00 | 73 | 1008.8 |
| 20260506080556 | 63 | 214 | 0.0 | 10.0 | 0.00 | 0.00 | 0.00 | 73 | 1008.8 |
| 20260506073102 | 64 | 0 | 1.0 | 12.0 | 0.00 | 0.00 | 0.00 | 69 | 1008.9 |
| 20260506072557 | 64 | 188 | 0.0 | 5.0 | 0.00 | 0.00 | 0.00 | 69 | 1009.0 |
| 20260506072057 | 64 | 0 | 1.0 | 6.0 | 0.00 | 0.00 | 0.00 | 68 | 1008.9 |
| 20260506071602 | 64 | 0 | 0.0 | 9.0 | 0.00 | 0.00 | 0.00 | 67 | 1008.8 |
| 20260506071057 | 64 | 0 | 0.0 | 10.0 | 0.00 | 0.00 | 0.00 | 67 | 1008.9 |
| 20260506070556 | 64 | 192 | 2.0 | 10.0 | 0.00 | 0.00 | 0.00 | 66 | 1008.8 |
| 20260506070116 | 65 | 0 | 0.0 | 10.0 | 0.00 | 0.00 | 0.00 | 66 | 1008.9 |
| 20260506062100 | 65 | 0 | 2.0 | 13.0 | 0.00 | 0.00 | 0.00 | 63 | 1009.2 |
| 20260506061602 | 65 | 245 | 2.0 | 13.0 | 0.00 | 0.00 | 0.00 | 63 | 1009.2 |
| 20260506061057 | 65 | 0 | 2.0 | 12.0 | 0.00 | 0.00 | 0.00 | 62 | 1009.3 |
| 20260506060557 | 66 | 101 | 1.0 | 9.0 | 0.00 | 0.00 | 0.00 | 62 | 1009.2 |
| 20260506051056 | 66 | 0 | 1.0 | 11.0 | 0.00 | 0.00 | 0.00 | 61 | 1009.7 |
| 20260506050556 | 66 | 0 | 2.0 | 11.0 | 0.00 | 0.00 | 0.00 | 61 | 1009.6 |
| 20260506050112 | 66 | 155 | 0.0 | 9.0 | 0.00 | 0.00 | 0.00 | 61 | 1009.8 |
| 20260506045057 | 65 | 122 | 0.0 | 8.0 | 0.00 | 0.00 | 0.00 | 61 | 1009.8 |
| 20260506044602 | 65 | 237 | 1.0 | 8.0 | 0.00 | 0.00 | 0.00 | 61 | 1009.9 |
| 20260506044057 | 65 | 0 | 0.0 | 6.0 | 0.00 | 0.00 | 0.00 | 61 | 1009.9 |
| 20260506043558 | 66 | 0 | 1.0 | 8.0 | 0.00 | 0.00 | 0.00 | 61 | 1009.9 |
| 20260506043059 | 66 | 0 | 0.0 | 8.0 | 0.00 | 0.00 | 0.00 | 61 | 1009.8 |
| 20260506042556 | 66 | 0 | 3.0 | 8.0 | 0.00 | 0.00 | 0.00 | 61 | 1009.8 |
| 20260506042057 | 66 | 111 | 0.0 | 10.0 | 0.00 | 0.00 | 0.00 | 60 | 1009.8 |
| 20260506041557 | 66 | 194 | 2.0 | 10.0 | 0.00 | 0.00 | 0.00 | 61 | 1009.9 |
| 20260506041055 | 66 | 0 | 0.0 | 7.0 | 0.00 | 0.00 | 0.00 | 60 | 1009.9 |
| 20260506040556 | 66 | 146 | 1.0 | 7.0 | 0.00 | 0.00 | 0.00 | 60 | 1009.9 |
| 20260506040100 | 66 | 0 | 1.0 | 8.0 | 0.00 | 0.00 | 0.00 | 60 | 1009.9 |
| 20260506035556 | 66 | 0 | 0.0 | 8.0 | 0.00 | 0.00 | 0.00 | 60 | 1009.9 |
| 20260506035056 | 66 | 0 | 1.0 | 8.0 | 0.00 | 0.00 | 0.00 | 60 | 1009.9 |
| 20260506034559 | 66 | 147 | 0.0 | 7.0 | 0.00 | 0.00 | 0.00 | 59 | 1010.0 |
| 20260506034057 | 67 | 0 | 0.0 | 9.0 | 0.00 | 0.00 | 0.00 | 59 | 1009.9 |
| 20260506033558 | 67 | 159 | 2.0 | 9.0 | 0.00 | 0.00 | 0.00 | 58 | 1009.8 |
| 20260506033055 | 67 | 165 | 1.0 | 9.0 | 0.00 | 0.00 | 0.00 | 58 | 1009.8 |
| 20260506032558 | 67 | 191 | 1.0 | 9.0 | 0.00 | 0.00 | 0.00 | 58 | 1009.8 |
| 20260506032056 | 67 | 0 | 0.0 | 7.0 | 0.00 | 0.00 | 0.00 | 58 | 1009.7 |
| 20260506031602 | 67 | 0 | 1.0 | 12.0 | 0.00 | 0.00 | 0.00 | 57 | 1009.7 |
| 20260506031056 | 67 | 130 | 0.0 | 12.0 | 0.00 | 0.00 | 0.00 | 56 | 1009.6 |
| 20260506030556 | 68 | 138 | 0.0 | 8.0 | 0.00 | 0.00 | 0.00 | 55 | 1009.7 |
| 20260506030113 | 68 | 5 | 2.0 | 9.0 | 0.00 | 0.00 | 0.00 | 54 | 1009.7 |
| 20260506025556 | 68 | 0 | 1.0 | 9.0 | 0.00 | 0.00 | 0.00 | 54 | 1009.8 |
| 20260506025056 | 68 | 0 | 1.0 | 8.0 | 0.00 | 0.00 | 0.00 | 53 | 1009.8 |
| 20260506024559 | 69 | 130 | 0.0 | 9.0 | 0.00 | 0.00 | 0.00 | 51 | 1009.8 |
| 20260506024056 | 69 | 0 | 0.0 | 11.0 | 0.00 | 0.00 | 0.00 | 50 | 1009.8 |
| 20260506023555 | 69 | 0 | 1.0 | 11.0 | 0.00 | 0.00 | 0.00 | 49 | 1009.8 |
| 20260506023059 | 69 | 139 | 2.0 | 10.0 | 0.00 | 0.00 | 0.00 | 49 | 1009.7 |
| 20260506022558 | 70 | 0 | 0.0 | 9.0 | 0.00 | 0.00 | 0.00 | 48 | 1009.7 |
| 20260506022056 | 70 | 178 | 2.0 | 9.0 | 0.00 | 0.00 | 0.00 | 48 | 1009.7 |
| 20260506021607 | 70 | 199 | 1.0 | 8.0 | 0.00 | 0.00 | 0.00 | 47 | 1009.6 |
| 20260506021056 | 70 | 0 | 0.0 | 8.0 | 0.00 | 0.00 | 0.00 | 47 | 1009.7 |
| 20260506020556 | 71 | 0 | 2.0 | 8.0 | 0.00 | 0.00 | 0.00 | 46 | 1009.6 |
| 20260506020100 | 71 | 0 | 1.0 | 8.0 | 0.00 | 0.00 | 0.00 | 46 | 1009.7 |
| 20260506015556 | 71 | 0 | 0.0 | 13.0 | 0.00 | 0.00 | 0.00 | 45 | 1009.6 |
| 20260506015058 | 71 | 0 | 2.0 | 13.0 | 0.00 | 0.00 | 0.00 | 45 | 1009.6 |
| 20260506014602 | 71 | 156 | 1.0 | 11.0 | 0.00 | 0.00 | 0.00 | 45 | 1009.6 |
| 20260506014056 | 72 | 0 | 1.0 | 12.0 | 0.00 | 0.00 | 0.00 | 45 | 1009.5 |
| 20260506013600 | 72 | 0 | 4.0 | 12.0 | 0.00 | 0.00 | 0.00 | 44 | 1009.4 |
| 20260506013058 | 72 | 0 | 4.0 | 11.0 | 0.00 | 0.00 | 0.00 | 45 | 1009.4 |
| 20260506012556 | 71 | 0 | 1.0 | 11.0 | 0.00 | 0.00 | 0.00 | 45 | 1009.4 |
| 20260506012057 | 71 | 187 | 1.0 | 11.0 | 0.00 | 0.00 | 0.00 | 46 | 1009.3 |
| 20260506011558 | 71 | 114 | 1.0 | 8.0 | 0.00 | 0.00 | 0.00 | 47 | 1009.3 |
| 20260506011056 | 71 | 0 | 1.0 | 10.0 | 0.00 | 0.00 | 0.00 | 46 | 1009.2 |
| 20260506010557 | 72 | 0 | 2.0 | 10.0 | 0.00 | 0.00 | 0.00 | 46 | 1009.1 |
| 20260506010100 | 72 | 145 | 1.0 | 8.0 | 0.00 | 0.00 | 0.00 | 45 | 1009.0 |
| 20260506005557 | 72 | 0 | 0.0 | 10.0 | 0.00 | 0.00 | 0.00 | 46 | 1009.0 |
| 20260506005056 | 72 | 0 | 1.0 | 10.0 | 0.00 | 0.00 | 0.00 | 45 | 1008.9 |
| 20260506004626 | 72 | 139 | 0.0 | 9.0 | 0.00 | 0.00 | 0.00 | 45 | 1008.8 |
| 20260506004055 | 72 | 198 | 1.0 | 13.0 | 0.00 | 0.00 | 0.00 | 44 | 1008.8 |
| 20260506003556 | 73 | 162 | 2.0 | 13.0 | 0.00 | 0.00 | 0.00 | 43 | 1008.7 |
| 20260506003057 | 73 | 0 | 2.0 | 9.0 | 0.00 | 0.00 | 0.00 | 43 | 1008.6 |
| 20260506002556 | 73 | 0 | 2.0 | 9.0 | 0.00 | 0.00 | 0.00 | 41 | 1008.7 |
| 20260506002059 | 73 | 244 | 1.0 | 11.0 | 0.00 | 0.00 | 0.00 | 40 | 1008.6 |
| 20260506001600 | 73 | 0 | 0.0 | 11.0 | 0.00 | 0.00 | 0.00 | 40 | 1008.6 |
| 20260506001055 | 74 | 0 | 3.0 | 11.0 | 0.00 | 0.00 | 0.00 | 40 | 1008.5 |
| 20260506000556 | 74 | 0 | 0.0 | 9.0 | 0.00 | 0.00 | 0.00 | 40 | 1008.6 |
| 20260506000057 | 74 | 183 | 1.0 | 9.0 | 0.00 | 0.00 | 0.00 | 38 | 1008.5 |
| 20260505235558 | 74 | 0 | 0.0 | 15.0 | 0.00 | 0.00 | 0.00 | 38 | 1008.5 |
| 20260505235056 | 74 | 0 | 2.0 | 15.0 | 0.00 | 0.00 | 0.00 | 38 | 1008.5 |
| 20260505234615 | 75 | 0 | 1.0 | 11.0 | 0.00 | 0.00 | 0.00 | 38 | 1008.4 |
| 20260505234056 | 75 | 0 | 2.0 | 10.0 | 0.00 | 0.00 | 0.00 | 38 | 1008.4 |
| 20260505233556 | 75 | 146 | 0.0 | 11.0 | 0.00 | 0.00 | 0.00 | 38 | 1008.3 |
| 20260505233056 | 75 | 0 | 2.0 | 11.0 | 0.00 | 0.00 | 0.00 | 37 | 1008.3 |
| 20260505232556 | 75 | 175 | 3.0 | 11.0 | 0.00 | 0.00 | 0.00 | 37 | 1008.3 |
| 20260505232056 | 76 | 128 | 2.0 | 12.0 | 0.00 | 0.00 | 0.00 | 37 | 1008.3 |
| 20260505231558 | 76 | 0 | 3.0 | 15.0 | 0.00 | 0.00 | 0.00 | 36 | 1008.3 |
| 20260505231056 | 76 | 215 | 4.0 | 15.0 | 0.00 | 0.00 | 0.00 | 35 | 1008.2 |
| 20260505230556 | 77 | 122 | 1.0 | 14.0 | 0.00 | 0.00 | 0.00 | 36 | 1008.2 |
| 20260505230058 | 77 | 263 | 1.0 | 17.0 | 0.00 | 0.00 | 0.00 | 36 | 1008.1 |
| 20260505225556 | 77 | 171 | 4.0 | 17.0 | 0.00 | 0.00 | 0.00 | 35 | 1008.1 |
| 20260505225056 | 77 | 253 | 1.0 | 14.0 | 0.00 | 0.00 | 0.00 | 35 | 1008.2 |
| 20260505224559 | 77 | 200 | 4.0 | 14.0 | 0.00 | 0.00 | 0.00 | 34 | 1008.1 |
| 20260505224056 | 78 | 170 | 0.0 | 11.0 | 0.00 | 0.00 | 0.00 | 34 | 1008.0 |
| 20260505223555 | 78 | 0 | 2.0 | 15.0 | 0.00 | 0.00 | 0.00 | 36 | 1007.9 |
| 20260505223105 | 78 | 184 | 2.0 | 18.0 | 0.00 | 0.00 | 0.00 | 34 | 1007.8 |
| 20260505222556 | 78 | 233 | 3.0 | 18.0 | 0.00 | 0.00 | 0.00 | 33 | 1007.8 |
| 20260505222057 | 78 | 176 | 3.0 | 11.0 | 0.00 | 0.00 | 0.00 | 33 | 1007.8 |
| 20260505221608 | 78 | 155 | 4.0 | 12.0 | 0.00 | 0.00 | 0.00 | 33 | 1008.0 |
| 20260505221056 | 79 | 0 | 2.0 | 13.0 | 0.00 | 0.00 | 0.00 | 32 | 1008.0 |
| 20260505220600 | 79 | 198 | 2.0 | 16.0 | 0.00 | 0.00 | 0.00 | 33 | 1008.0 |
| 20260505220138 | 79 | 270 | 4.0 | 18.0 | 0.00 | 0.00 | 0.00 | 33 | 1007.9 |
| 20260505215557 | 79 | 149 | 6.0 | 18.0 | 0.00 | 0.00 | 0.00 | 34 | 1007.9 |
| 20260505215056 | 79 | 164 | 6.0 | 19.0 | 0.00 | 0.00 | 0.00 | 32 | 1007.9 |
| 20260505214616 | 79 | 0 | 5.0 | 21.0 | 0.00 | 0.00 | 0.00 | 32 | 1007.9 |
| 20260505214055 | 79 | 217 | 5.0 | 21.0 | 0.00 | 0.00 | 0.00 | 33 | 1007.9 |
| 20260505213558 | 79 | 187 | 4.0 | 21.0 | 0.00 | 0.00 | 0.00 | 33 | 1007.9 |
| 20260505213056 | 78 | 168 | 2.0 | 14.0 | 0.00 | 0.00 | 0.00 | 33 | 1007.8 |
| 20260505212558 | 78 | 223 | 5.0 | 15.0 | 0.00 | 0.00 | 0.00 | 33 | 1007.8 |
| 20260505212056 | 77 | 148 | 7.0 | 15.0 | 0.00 | 0.00 | 0.00 | 33 | 1007.7 |
| 20260505211613 | 78 | 246 | 4.0 | 17.0 | 0.00 | 0.00 | 0.00 | 33 | 1007.6 |
| 20260505211056 | 78 | 240 | 4.0 | 17.0 | 0.00 | 0.00 | 0.00 | 32 | 1007.5 |
| 20260505210557 | 79 | 223 | 4.0 | 17.0 | 0.00 | 0.00 | 0.00 | 32 | 1007.6 |
| 20260505210058 | 80 | 194 | 3.0 | 17.0 | 0.00 | 0.00 | 0.00 | 31 | 1007.4 |
| 20260505205557 | 81 | 142 | 5.0 | 17.0 | 0.00 | 0.00 | 0.00 | 30 | 1007.3 |
| 20260505205057 | 81 | 117 | 4.0 | 17.0 | 0.00 | 0.00 | 0.00 | 30 | 1007.4 |
| 20260505204558 | 81 | 234 | 3.0 | 21.0 | 0.00 | 0.00 | 0.00 | 31 | 1007.5 |
| 20260505204056 | 80 | 163 | 8.0 | 21.0 | 0.00 | 0.00 | 0.00 | 31 | 1007.5 |
| 20260505203556 | 80 | 168 | 9.0 | 19.0 | 0.00 | 0.00 | 0.00 | 30 | 1007.6 |
| 20260505203059 | 80 | 192 | 6.0 | 19.0 | 0.00 | 0.00 | 0.00 | 29 | 1007.6 |
| 20260505202556 | 80 | 210 | 6.0 | 16.0 | 0.00 | 0.00 | 0.00 | 29 | 1007.7 |
| 20260505202100 | 81 | 240 | 8.0 | 16.0 | 0.00 | 0.00 | 0.00 | 29 | 1007.5 |
| 20260505201607 | 81 | 194 | 8.0 | 15.0 | 0.00 | 0.00 | 0.00 | 28 | 1007.7 |
| 20260505201056 | 81 | 292 | 2.0 | 19.0 | 0.00 | 0.00 | 0.00 | 30 | 1007.5 |
| 20260505200557 | 81 | 167 | 7.0 | 23.0 | 0.00 | 0.00 | 0.00 | 32 | 1007.7 |
| 20260505200105 | 81 | 321 | 6.0 | 23.0 | 0.00 | 0.00 | 0.00 | 30 | 1007.6 |
| 20260505195555 | 81 | 279 | 5.0 | 23.0 | 0.00 | 0.00 | 0.00 | 29 | 1007.6 |
| 20260505195056 | 81 | 279 | 5.0 | 20.0 | 0.00 | 0.00 | 0.00 | 31 | 1007.7 |
| 20260505194606 | 81 | 225 | 7.0 | 20.0 | 0.00 | 0.00 | 0.00 | 33 | 1007.6 |
| 20260505194057 | 81 | 158 | 6.0 | 29.0 | 0.00 | 0.00 | 0.00 | 31 | 1007.7 |
| 20260505193557 | 81 | 274 | 10.0 | 29.0 | 0.00 | 0.00 | 0.00 | 30 | 1007.6 |
| 20260505193056 | 81 | 0 | 3.0 | 15.0 | 0.00 | 0.00 | 0.00 | 32 | 1007.7 |
| 20260505192556 | 81 | 211 | 4.0 | 18.0 | 0.00 | 0.00 | 0.00 | 32 | 1007.7 |
| 20260505192100 | 81 | 258 | 9.0 | 18.0 | 0.00 | 0.00 | 0.00 | 32 | 1007.7 |
| 20260505191557 | 81 | 192 | 3.0 | 21.0 | 0.00 | 0.00 | 0.00 | 29 | 1007.8 |
| 20260505191056 | 81 | 133 | 5.0 | 21.0 | 0.00 | 0.00 | 0.00 | 28 | 1007.9 |
| 20260505190557 | 81 | 136 | 10.0 | 21.0 | 0.00 | 0.00 | 0.00 | 28 | 1007.9 |
| 20260505190107 | 82 | 310 | 9.0 | 21.0 | 0.00 | 0.00 | 0.00 | 29 | 1007.9 |
| 20260505185557 | 82 | 178 | 2.0 | 19.0 | 0.00 | 0.00 | 0.00 | 32 | 1008.0 |
| 20260505185058 | 80 | 134 | 5.0 | 19.0 | 0.00 | 0.00 | 0.00 | 35 | 1008.0 |
| 20260505184604 | 79 | 136 | 7.0 | 19.0 | 0.00 | 0.00 | 0.00 | 34 | 1008.1 |
| 20260505184057 | 80 | 251 | 7.0 | 17.0 | 0.00 | 0.00 | 0.00 | 34 | 1008.1 |
| 20260505183558 | 81 | 202 | 7.0 | 17.0 | 0.00 | 0.00 | 0.00 | 35 | 1008.2 |
| 20260505182556 | 81 | 199 | 6.0 | 18.0 | 0.00 | 0.00 | 0.00 | 32 | 1008.2 |
| 20260505182056 | 81 | 128 | 7.0 | 18.0 | 0.00 | 0.00 | 0.00 | 32 | 1008.3 |
| 20260505181600 | 81 | 226 | 6.0 | 17.0 | 0.00 | 0.00 | 0.00 | 33 | 1008.4 |
| 20260505181056 | 81 | 249 | 5.0 | 14.0 | 0.00 | 0.00 | 0.00 | 32 | 1008.5 |
| 20260505180556 | 81 | 196 | 4.0 | 15.0 | 0.00 | 0.00 | 0.00 | 32 | 1008.5 |
| 20260505180109 | 81 | 154 | 5.0 | 14.0 | 0.00 | 0.00 | 0.00 | 36 | 1008.6 |
| 20260505175556 | 80 | 178 | 6.0 | 25.0 | 0.00 | 0.00 | 0.00 | 35 | 1008.5 |
| 20260505175056 | 81 | 203 | 2.0 | 25.0 | 0.00 | 0.00 | 0.00 | 38 | 1008.6 |
| 20260505174611 | 80 | 200 | 5.0 | 21.0 | 0.00 | 0.00 | 0.00 | 35 | 1008.7 |
| 20260505174056 | 80 | 169 | 4.0 | 16.0 | 0.00 | 0.00 | 0.00 | 37 | 1008.7 |
| 20260505173555 | 80 | 130 | 5.0 | 19.0 | 0.00 | 0.00 | 0.00 | 38 | 1008.8 |
| 20260505173112 | 80 | 113 | 3.0 | 19.0 | 0.00 | 0.00 | 0.00 | 37 | 1008.8 |